Flag for Austria Weather past 2 weeks in Stockerau, Lower Austria, Austria

Now
43 °F

Clear.


Feels Like: 43 °F
Forecast: 32 / 64 °F
Wind: 2 mph from North

Location: Tulln Airport


UV Index: 3 (Moderate)

Visibility: 19 mi


Pressure: 30.04 "Hg

Humidity: 71%

Dew point: 34 °F

Location of StockerauLocation

Historic Weather in Stockerau

°F

Stockerau temperature yesterday

Maximum temperature yesterday: 59 °F (at 3:50 PM)
Minimum temperature yesterday: 34 °F (at 5:50 AM)
Average temperature yesterday: 49 °F

Past Weeks' High & Low Weather Summary

 TemperatureHumidityPressure
High75 °F (Apr 8, 1:50 PM)100% (Apr 7, 5:50 AM)30.33 "Hg (Apr 7, 5:50 AM)
Low34 °F (Apr 11, 5:50 AM)31% (Apr 3, 4:50 PM)29.68 "Hg (Apr 3, 5:50 PM)
Average53 °F66%30.02 "Hg
* Reported Apr 2 10:50 PM — Apr 17 10:50 PM, Stockerau, Weather by CustomWeather, © 2014

Note: Actual official high and low records may vary slightly from our data, if they occured in-between our weather recording intervals... More about our weather records

Advertising

Historic Weather Conditions — Data for Previous 24 hours

 ConditionsComfort  
Time TempWeatherWind HumidityBarometerVisibility
10:50 PM
Apr 17
43 °FClear.2 mph71%30.04 "Hg19 mi
9:50 PM45 °FPassing clouds.3 mph66%30.04 "Hg19 mi
8:50 PM46 °FPassing clouds.3 mph66%30.07 "Hg19 mi
7:50 PM52 °FPassing clouds.6 mph50%30.07 "Hg22 mi
6:50 PM55 °FPassing clouds.6 mph44%30.07 "Hg25 mi
5:50 PM57 °FPassing clouds.8 mph33%30.07 "Hg25 mi
4:50 PM59 °FScattered clouds.9 mph34%30.09 "Hg25 mi
3:50 PM59 °FPassing clouds.12 mph34%30.09 "Hg22 mi
2:50 PM57 °FScattered clouds.9 mph36%30.12 "Hg22 mi
1:50 PM55 °FScattered clouds.7 mph38%30.15 "Hg22 mi
12:50 PM52 °FPartly sunny.10 mph44%30.18 "Hg22 mi
11:50 AM52 °FPartly sunny.12 mph44%30.21 "Hg22 mi
10:50 AM50 °FPartly sunny.13 mph47%30.24 "Hg22 mi
9:50 AM48 °FScattered clouds.10 mph54%30.24 "Hg19 mi
8:50 AM46 °FPassing clouds.8 mph57%30.27 "Hg16 mi
7:50 AM41 °FPassing clouds.7 mph70%30.30 "Hg16 mi
6:50 AM34 °FPassing clouds.3 mph81%30.27 "Hg14 mi
5:50 AM34 °FPassing clouds.7 mph81%30.30 "Hg9 mi
Weather by CustomWeather, © 2014

See weather overview